User: anonymous   Login
Location: Unspecified
(0.0000°N, 0.0000°E)
Time: 10:17:18
(UTC+00:00)
Language:

SWAYAM - Orbit

View from above orbital plane
View from above orbital plane
View from above satellite
View from above satellite

Ground track
Ground track

The orbit data is extracted from the following two-line orbital elements,

1 41607U 16040J   21340.11987818  .00004258  00000-0  16203-3 0  9996
2 41607  97.2461  31.2527 0013920  90.6563 269.6271 15.27191548303230
Epoch (UTC): 06 December 2021 02:52:37
Eccentricity: 0.0013920
inclination: 97.2461°
perigee height: 474 km
apogee height: 494 km
right ascension of ascending node: 31.2527°
argument of perigee: 90.6563°
revolutions per day: 15.27191548
mean anomaly at epoch: 269.6271°
orbit number at epoch: 30323

The dashed part of the orbit path shows where the satellite is in the earth's shadow,  

DLR